TimeAKDT,TemperatureF,Dew PointF,Humidity,Sea Level PressureIn,VisibilityMPH,Wind Direction,Wind SpeedMPH,Gust SpeedMPH,PrecipitationIn,Events,Conditions,WindDirDegrees,DateUTC
12:53 AM,42.1,37.9,85,30.26,10.0,Calm,Calm,-,N/A,,Overcast,0,2012-10-03 08:53:00
1:53 AM,43.0,37.9,82,30.27,10.0,NW,4.6,-,N/A,,Overcast,320,2012-10-03 09:53:00
2:53 AM,42.1,37.9,85,30.27,10.0,NNE,3.5,-,N/A,,Overcast,30,2012-10-03 10:53:00
3:53 AM,42.1,37.9,85,30.27,10.0,Calm,Calm,-,N/A,,Overcast,0,2012-10-03 11:53:00
4:53 AM,41.0,37.0,86,30.28,10.0,Calm,Calm,-,N/A,,Overcast,0,2012-10-03 12:53:00
5:53 AM,41.0,37.0,86,30.27,10.0,Calm,Calm,-,N/A,,Overcast,0,2012-10-03 13:53:00
6:53 AM,42.1,37.0,82,30.27,10.0,Calm,Calm,-,N/A,,Overcast,0,2012-10-03 14:53:00
7:53 AM,42.1,37.0,82,30.27,10.0,North,3.5,-,N/A,,Overcast,350,2012-10-03 15:53:00
8:53 AM,42.1,37.0,82,30.27,10.0,Calm,Calm,-,N/A,,Overcast,0,2012-10-03 16:53:00
9:53 AM,43.0,36.0,76,30.26,10.0,North,3.5,-,N/A,,Overcast,350,2012-10-03 17:53:00
10:53 AM,43.0,36.0,76,30.27,10.0,NNW,4.6,-,N/A,,Overcast,340,2012-10-03 18:53:00
11:53 AM,44.1,36.0,73,30.25,10.0,NNE,3.5,-,N/A,,Overcast,30,2012-10-03 19:53:00
12:53 PM,45.0,36.0,71,30.25,10.0,NNW,4.6,-,N/A,,Overcast,330,2012-10-03 20:53:00
1:53 PM,46.0,37.0,71,30.21,10.0,NW,5.8,-,N/A,,Overcast,320,2012-10-03 21:53:00
2:53 PM,46.9,37.0,68,30.19,10.0,NNW,5.8,-,N/A,,Overcast,330,2012-10-03 22:53:00
3:53 PM,45.0,39.0,80,30.20,4.0,North,5.8,-,0.01,Rain,Rain,360,2012-10-03 23:53:00
4:53 PM,44.1,39.9,85,30.17,8.0,North,8.1,-,0.02,Rain,Light Rain,360,2012-10-04 00:53:00
5:53 PM,44.1,41.0,89,30.15,10.0,Variable,3.5,-,0.00,Rain,Light Rain,0,2012-10-04 01:53:00
6:45 PM,44.6,41.0,87,30.13,3.0,North,4.6,-,0.03,Rain,Rain,360,2012-10-04 02:45:00
6:53 PM,44.1,41.0,89,30.13,4.0,North,6.9,-,0.04,Rain,Rain,350,2012-10-04 02:53:00
7:53 PM,45.0,41.0,86,30.10,6.0,NW,4.6,-,0.03,Rain,Rain,310,2012-10-04 03:53:00
8:53 PM,45.0,42.1,90,30.09,10.0,NNW,6.9,-,N/A,,Overcast,330,2012-10-04 04:53:00
9:53 PM,45.0,42.1,90,30.07,10.0,NNW,6.9,-,N/A,Rain,Light Rain,340,2012-10-04 05:53:00
10:53 PM,46.0,42.1,86,30.06,10.0,NW,6.9,-,0.00,,Overcast,320,2012-10-04 06:53:00
11:53 PM,45.0,42.1,90,30.06,10.0,NW,5.8,-,N/A,,Overcast,320,2012-10-04 07:53:00